Greenville, AL

12:15 AM CDT on October 24, 2017 (GMT -0500)
Greenville Municipal

Weather History for KPRN - October, 2014

Change the Weather History Date:

Monday, October 6, 2014

  Actual Average Record
Temperature  
Mean Temperature 66 °F -  
Max Temperature 82 °F 82 °F 100 °F (1954)
Min Temperature 50 °F 56 °F 42 °F (1932)
Cooling Degree Days 1    
Growing Degree Days 16 (Base 50)    
Moisture  
Dew Point 52 °F    
Average Humidity 64    
Maximum Humidity 89    
Minimum Humidity 31    
Precipitation  
Precipitation 0.00 in - - ()
Sea Level Pressure  
Sea Level Pressure 30.02 in    
Wind  
Wind Speed 3 mph (South)    
Max Wind Speed 8 mph    
Max Gust Speed 16 mph    
Visibility 10 miles    
Events      
Averages and records for this station are not official NWS values.
T = Trace of Precipitation, MM = Missing Value Source: NWS Daily Summary

Daily Weather History Graph

Daily Weather History Graph

Search for Another Location

Airport or City:

Trip Planner

Search our weather history database for the weather conditions in past years. The results will help you decide how hot, cold, wet, or windy it might be!

Date:

Astronomy

Oct. 06, 2014 Rise Set
Actual Time 6:43 AM CDT 6:24 PM CDT
Civil Twilight 6:19 AM CDT 6:49 PM CDT
Nautical Twilight 5:50 AM CDT 7:17 PM CDT
Astronomical Twilight 5:22 AM CDT 7:45 PM CDT
Moon 5:16 PM CDT (10/6) 4:37 AM CDT (10/6)
Length of Visible Light 12h 30m
Length of Day
11h 41m
Waxing Gibbous, 96% of the Moon is Illuminated
Oct 6
Waxing Gibbous
Oct 8
Full
Oct 15
Last Quarter
Oct 23
New
Oct 30
First Quarter

Hourly Weather History & Observations

Time (CDT) Temp. Heat Index Dew Point Humidity Pressure Visibility Wind Dir Wind Speed Gust Speed Precip Events Conditions
12:56 AM 55.0 °F - 46.9 °F 74% 30.01 in 10.0 mi Calm Calm - N/A   Clear
1:56 AM 53.1 °F - 46.9 °F 80% 30.02 in 10.0 mi South 3.5 mph - N/A   Clear
2:56 AM 52.0 °F - 46.9 °F 83% 30.01 in 10.0 mi Calm Calm - N/A   Clear
3:56 AM 53.1 °F - 48.0 °F 83% 30.01 in 10.0 mi Calm Calm - N/A   Clear
4:56 AM 51.1 °F - 46.9 °F 86% 30.01 in 10.0 mi Calm Calm - N/A   Clear
5:56 AM 50.0 °F - 46.9 °F 89% 30.02 in 10.0 mi Calm Calm - N/A   Clear
6:56 AM 51.1 °F - 46.9 °F 86% 30.05 in 10.0 mi Calm Calm - N/A   Clear
7:56 AM 57.0 °F - 50.0 °F 77% 30.08 in 10.0 mi Calm Calm - N/A   Clear
8:56 AM 66.9 °F - 52.0 °F 59% 30.06 in 10.0 mi SSE 5.8 mph - N/A   Clear
9:56 AM 70.0 °F - 53.1 °F 55% 30.08 in 10.0 mi SSE 5.8 mph - N/A   Clear
10:56 AM 75.9 °F - 53.1 °F 45% 30.07 in 10.0 mi Variable 4.6 mph - N/A   Clear
11:56 AM 78.1 °F - 52.0 °F 40% 30.05 in 10.0 mi Variable 6.9 mph - N/A   Clear
12:56 PM 81.0 °F 80.4 °F 53.1 °F 38% 30.02 in 10.0 mi Variable 6.9 mph - N/A   Clear
1:56 PM 82.0 °F - 48.9 °F 31% 30.01 in 10.0 mi South 8.1 mph - N/A   Clear
2:56 PM 82.0 °F - 51.1 °F 34% 29.99 in 10.0 mi South 8.1 mph 16.1 mph N/A   Clear
3:56 PM - - - N/A% - 10.0 mi South 8.1 mph - N/A   Clear
4:56 PM 80.1 °F 80.2 °F 55.9 °F 43% 29.97 in 10.0 mi Variable 5.8 mph - N/A   Partly Cloudy
5:56 PM 77.0 °F - 55.9 °F 48% 29.97 in 10.0 mi South 5.8 mph - N/A   Partly Cloudy
6:56 PM 72.0 °F - 55.0 °F 55% 29.97 in 10.0 mi South 5.8 mph - N/A   Clear
7:56 PM 68.0 °F - 55.9 °F 65% 29.99 in 10.0 mi South 4.6 mph - N/A   Clear
8:56 PM 68.0 °F - 57.0 °F 68% 30.01 in 10.0 mi South 4.6 mph - N/A   Clear
10:56 PM 64.0 °F - 59.0 °F 84% 30.02 in 10.0 mi SSE 3.5 mph - N/A   Clear
11:56 PM 63.0 °F - 59.0 °F 87% 30.03 in 10.0 mi SSE 4.6 mph - N/A   Clear